• Em Portugal
  • Lista de países
  • Para 7 dias
  • Temperatura da água
  • Mapas de satélite
  • Mapa do tempo
  • Widgets de tempo
  • user-avatar
    Iniciar Sessão

    Previsão horária em Mandalay

    Hoje, 24 Fevereiro, Sábado

    Tempo Temperatura Precipitação Vento Pressão Humidade
    00:00 +24°C° 0 mm 2 m/s 752 mmHg 24%
    01:00 +24°C° 0 mm 1 m/s 753 mmHg 25%
    02:00 +24°C° 0 mm 1 m/s 753 mmHg 25%
    03:00 +23°C° 0 mm 1 m/s 753 mmHg 25%
    04:00 +23°C° 0 mm 1 m/s 753 mmHg 26%
    05:00 +22°C° 0 mm 1 m/s 754 mmHg 27%
    06:00 +22°C° 0 mm 1 m/s 754 mmHg 27%
    07:00 +25°C° 0 mm 1 m/s 755 mmHg 25%
    08:00 +28°C° 0 mm 1 m/s 755 mmHg 23%
    09:00 +29°C° 0 mm 0 m/s 755 mmHg 20%
    10:00 +32°C° 0 mm 1 m/s 755 mmHg 19%
    11:00 +33°C° 0 mm 1 m/s 755 mmHg 18%
    12:00 +35°C° 0 mm 1 m/s 754 mmHg 17%
    13:00 +36°C° 0 mm 2 m/s 753 mmHg 17%
    14:00 +36°C° 0 mm 2 m/s 753 mmHg 17%
    15:00 +36°C° 0 mm 2 m/s 752 mmHg 17%
    16:00 +34°C° 0 mm 2 m/s 752 mmHg 20%
    17:00 +31°C° 0 mm 1 m/s 752 mmHg 22%
    18:00 +29°C° 0 mm 1 m/s 752 mmHg 25%
    19:00 +28°C° 0 mm 1 m/s 753 mmHg 26%
    20:00 +28°C° 0 mm 1 m/s 753 mmHg 28%
    21:00 +27°C° 0 mm 1 m/s 754 mmHg 29%
    22:00 +26°C° 0 mm 1 m/s 754 mmHg 30%
    23:00 +26°C° 0 mm 1 m/s 754 mmHg 31%

    Amanhã, 25 Fevereiro, Domingo

    Tempo Temperatura Precipitação Vento Pressão Humidade
    00:00 +25°C° 0 mm 1 m/s 754 mmHg 32%
    01:00 +25°C° 0 mm 1 m/s 754 mmHg 33%
    02:00 +24°C° 0 mm 1 m/s 754 mmHg 34%
    03:00 +24°C° 0 mm 1 m/s 753 mmHg 36%
    04:00 +23°C° 0 mm 1 m/s 754 mmHg 37%
    05:00 +23°C° 0 mm 1 m/s 754 mmHg 38%
    06:00 +23°C° 0 mm 1 m/s 754 mmHg 40%
    07:00 +25°C° 0 mm 1 m/s 754 mmHg 36%
    08:00 +28°C° 0 mm 1 m/s 755 mmHg 32%
    09:00 +31°C° 0 mm 1 m/s 755 mmHg 28%
    10:00 +32°C° 0 mm 1 m/s 755 mmHg 26%
    11:00 +35°C° 0 mm 2 m/s 754 mmHg 24%
    12:00 +36°C° 0 mm 2 m/s 754 mmHg 22%
    13:00 +37°C° 0 mm 2 m/s 753 mmHg 21%
    14:00 +37°C° 0 mm 2 m/s 752 mmHg 21%
    15:00 +37°C° 0 mm 2 m/s 751 mmHg 20%
    16:00 +35°C° 0 mm 2 m/s 751 mmHg 23%
    17:00 +32°C° 0 mm 1 m/s 751 mmHg 26%
    18:00 +30°C° 0 mm 1 m/s 751 mmHg 29%
    19:00 +29°C° 0 mm 1 m/s 751 mmHg 30%
    20:00 +29°C° 0 mm 1 m/s 752 mmHg 31%
    21:00 +28°C° 0 mm 1 m/s 753 mmHg 32%
    22:00 +27°C° 0 mm 1 m/s 753 mmHg 33%
    23:00 +27°C° 0 mm 1 m/s 752 mmHg 33%

    Depois de amanhã, 26 Fevereiro, Segunda-feira

    Tempo Temperatura Precipitação Vento Pressão Humidade
    00:00 +26°C° 0 mm 1 m/s 752 mmHg 34%
    01:00 +26°C° 0 mm 1 m/s 752 mmHg 35%
    02:00 +26°C° 0 mm 1 m/s 752 mmHg 35%
    03:00 +25°C° 0 mm 1 m/s 752 mmHg 36%
    04:00 +25°C° 0 mm 1 m/s 752 mmHg 37%
    05:00 +24°C° 0 mm 1 m/s 752 mmHg 38%
    06:00 +24°C° 0 mm 1 m/s 753 mmHg 39%
    07:00 +27°C° 0 mm 1 m/s 753 mmHg 35%
    08:00 +29°C° 0 mm 1 m/s 753 mmHg 31%
    09:00 +32°C° 0 mm 1 m/s 754 mmHg 27%
    10:00 +34°C° 0 mm 1 m/s 753 mmHg 24%
    11:00 +36°C° 0 mm 1 m/s 752 mmHg 22%
    12:00 +39°C° 0 mm 1 m/s 752 mmHg 20%
    13:00 +39°C° 0 mm 2 m/s 751 mmHg 19%
    14:00 +38°C° 0 mm 2 m/s 750 mmHg 18%
    15:00 +38°C° 0 mm 2 m/s 749 mmHg 17%
    16:00 +36°C° 0 mm 2 m/s 749 mmHg 20%
    17:00 +35°C° 0 mm 2 m/s 750 mmHg 23%
    18:00 +32°C° 0 mm 1 m/s 750 mmHg 25%
    19:00 +30°C° 0 mm 3 m/s 751 mmHg 31%
    20:00 +29°C° 0 mm 4 m/s 751 mmHg 37%
    21:00 +28°C° 0 mm 5 m/s 752 mmHg 42%
    22:00 +27°C° 0 mm 4 m/s 752 mmHg 44%
    23:00 +27°C° 0 mm 3 m/s 752 mmHg 46%

    27 Fevereiro, Terça-feira

    Tempo Temperatura Precipitação Vento Pressão Humidade
    00:00 +26°C° 0 mm 2 m/s 752 mmHg 47%
    01:00 +26°C° 0 mm 2 m/s 752 mmHg 49%
    02:00 +25°C° 0 mm 1 m/s 752 mmHg 50%
    03:00 +24°C° 0 mm 1 m/s 751 mmHg 52%
    04:00 +24°C° 0 mm 1 m/s 752 mmHg 53%
    05:00 +24°C° 0 mm 1 m/s 752 mmHg 54%
    06:00 +23°C° 0 mm 1 m/s 753 mmHg 56%
    07:00 +26°C° 0 mm 1 m/s 753 mmHg 49%
    08:00 +28°C° 0 mm 1 m/s 754 mmHg 42%
    09:00 +31°C° 0 mm 1 m/s 754 mmHg 35%
    10:00 +32°C° 0 mm 2 m/s 753 mmHg 32%
    11:00 +34°C° 0 mm 2 m/s 753 mmHg 28%
    12:00 +36°C° 0 mm 3 m/s 752 mmHg 24%
    13:00 +36°C° 0 mm 3 m/s 751 mmHg 23%
    14:00 +36°C° 0 mm 3 m/s 750 mmHg 23%
    15:00 +36°C° 0 mm 3 m/s 749 mmHg 22%
    16:00 +34°C° 0 mm 3 m/s 749 mmHg 25%
    17:00 +32°C° 0 mm 2 m/s 749 mmHg 28%
    18:00 +30°C° 0 mm 1 m/s 750 mmHg 31%
    19:00 +29°C° 0 mm 1 m/s 750 mmHg 33%
    20:00 +28°C° 0 mm 2 m/s 751 mmHg 35%
    21:00 +27°C° 0 mm 2 m/s 751 mmHg 36%
    22:00 +27°C° 0 mm 1 m/s 751 mmHg 38%
    23:00 +26°C° 0 mm 1 m/s 751 mmHg 39%

    28 Fevereiro, Quarta-feira

    Tempo Temperatura Precipitação Vento Pressão Humidade
    00:00 +26°C° 0 mm 1 m/s 751 mmHg 40%
    01:00 +25°C° 0 mm 1 m/s 751 mmHg 41%
    02:00 +25°C° 0 mm 1 m/s 750 mmHg 42%
    03:00 +24°C° 0 mm 2 m/s 750 mmHg 43%
    04:00 +24°C° 0 mm 1 m/s 751 mmHg 45%
    05:00 +24°C° 0 mm 1 m/s 751 mmHg 46%
    06:00 +23°C° 0 mm 1 m/s 751 mmHg 48%
    07:00 +26°C° 0 mm 1 m/s 752 mmHg 42%
    08:00 +29°C° 0 mm 1 m/s 752 mmHg 37%
    09:00 +32°C° 0 mm 1 m/s 753 mmHg 32%
    10:00 +33°C° 0 mm 1 m/s 752 mmHg 29%
    11:00 +36°C° 0 mm 2 m/s 751 mmHg 26%
    12:00 +37°C° 0 mm 2 m/s 750 mmHg 24%
    13:00 +37°C° 0 mm 2 m/s 750 mmHg 23%
    14:00 +37°C° 0 mm 2 m/s 749 mmHg 22%
    15:00 +37°C° 0 mm 2 m/s 748 mmHg 22%
    16:00 +36°C° 0 mm 2 m/s 748 mmHg 24%
    17:00 +33°C° 0 mm 1 m/s 748 mmHg 27%
    18:00 +31°C° 0 mm 1 m/s 748 mmHg 30%
    19:00 +30°C° 0 mm 1 m/s 749 mmHg 31%
    20:00 +29°C° 0 mm 1 m/s 749 mmHg 33%
    21:00 +28°C° 0 mm 1 m/s 749 mmHg 34%
    22:00 +28°C° 0 mm 1 m/s 749 mmHg 35%
    23:00 +27°C° 0 mm 1 m/s 749 mmHg 36%

    1 Março, Quinta-feira

    Tempo Temperatura Precipitação Vento Pressão Humidade
    00:00 +27°C° 0 mm 1 m/s 749 mmHg 37%
    01:00 +26°C° 0 mm 1 m/s 749 mmHg 37%
    02:00 +26°C° 0 mm 1 m/s 749 mmHg 38%
    03:00 +25°C° 0 mm 1 m/s 748 mmHg 38%
    04:00 +25°C° 0 mm 1 m/s 749 mmHg 38%
    05:00 +25°C° 0 mm 1 m/s 749 mmHg 39%
    06:00 +24°C° 0 mm 1 m/s 750 mmHg 39%
    07:00 +27°C° 0 mm 1 m/s 750 mmHg 35%
    08:00 +30°C° 0 mm 1 m/s 750 mmHg 30%
    09:00 +33°C° 0 mm 1 m/s 751 mmHg 26%
    10:00 +34°C° 0 mm 1 m/s 750 mmHg 24%
    11:00 +35°C° 0 mm 1 m/s 749 mmHg 22%
    12:00 +37°C° 0 mm 2 m/s 749 mmHg 21%
    13:00 +38°C° 0 mm 2 m/s 748 mmHg 20%
    14:00 +38°C° 0 mm 2 m/s 747 mmHg 19%
    15:00 +38°C° 0 mm 2 m/s 746 mmHg 19%
    16:00 +36°C° 0 mm 2 m/s 746 mmHg 21%
    17:00 +34°C° 0 mm 1 m/s 747 mmHg 24%
    18:00 +32°C° 0 mm 1 m/s 747 mmHg 26%
    19:00 +31°C° 0 mm 1 m/s 747 mmHg 27%
    20:00 +30°C° 0 mm 1 m/s 748 mmHg 29%
    21:00 +29°C° 0 mm 1 m/s 748 mmHg 30%
    22:00 +29°C° 0 mm 1 m/s 748 mmHg 31%
    23:00 +28°C° 0 mm 1 m/s 748 mmHg 31%
    Mostrar mais